Location: Smyrna_Hopewell
(35.6500°N, 81.0330°W)
Time: 19:57:08
(UTC-04:00)

Cosmos 2221 - Visible Passes

Search period start: 27 May 2015 00:00
Search period end: 06 June 2015 00:00
Orbit: 596 x 619 km, 82.5° (Epoch: 26 May)

Date Brightness Start Highest point End Pass type
(mag) Time Alt. Az. Time Alt. Az. Time Alt. Az.
27 May 4.9 22:33:51 10° NE 22:34:41 11° ENE 22:34:41 11° ENE visible
28 May 4.1 00:08:51 10° NNW 00:11:36 34° NW 00:11:36 34° NW visible
28 May 4.4 22:45:56 10° NNE 22:48:28 19° ENE 22:48:28 19° ENE visible
29 May 4.5 00:22:57 10° NNW 00:25:24 24° WNW 00:25:24 24° WNW visible
29 May 3.7 22:58:59 10° NNE 23:02:17 31° ENE 23:02:17 31° ENE visible
30 May 5.0 00:37:31 10° NW 00:39:12 15° WNW 00:39:12 15° WNW visible
30 May 3.0 23:12:24 10° N 23:16:06 53° NE 23:16:06 53° NE visible
31 May 2.9 23:26:06 10° N 23:29:57 64° NW 23:29:57 64° NW visible
01 Jun 4.5 22:03:55 10° NE 22:06:15 14° ENE 22:06:53 14° E visible
01 Jun 3.6 23:40:01 10° NNW 23:43:48 39° W 23:43:48 39° W visible
02 Jun 3.8 22:16:37 10° NNE 22:20:13 25° ENE 22:20:45 24° E visible
02 Jun 4.4 23:54:16 10° NW 23:57:40 23° W 23:57:40 23° W visible
03 Jun 3.0 22:29:51 10° N 22:34:03 43° E 22:34:38 41° ESE visible
04 Jun 5.1 00:09:15 10° WNW 00:11:20 13° W 00:11:33 13° W visible
04 Jun 2.4 22:43:23 10° N 22:47:49 80° E 22:48:32 61° SSE visible
05 Jun 4.7 21:22:44 10° ENE 21:23:22 10° ENE 21:24:18 10° E visible
05 Jun 3.0 22:57:10 10° NNW 23:01:30 56° W 23:02:27 45° SW visible
